EST,Max TemperatureF,Mean TemperatureF,Min TemperatureF,Max Dew PointF,MeanDew PointF,Min DewpointF,Max Humidity, Mean Humidity, Min Humidity, Max Sea Level PressureIn, Mean Sea Level PressureIn, Min Sea Level PressureIn, Max VisibilityMiles, Mean VisibilityMiles, Min VisibilityMiles, Max Wind SpeedMPH, Mean Wind SpeedMPH, Max Gust SpeedMPH,PrecipitationIn, CloudCover, Events, WindDirDegrees
2012-12-1,38,36,33,36,30,26,100,85,70,30.51,30.46,30.42,10,7,0,15,7,17,0.00,8,Fog,64
2012-12-2,48,42,36,45,40,35,100,93,86,30.43,30.25,30.13,4,2,0,8,2,10,0.06,8,Fog-Rain,125
2012-12-3,63,49,35,52,45,37,100,80,60,30.25,30.19,30.13,10,4,0,9,3,13,0.00,5,Fog,256
2012-12-4,63,56,48,54,50,46,93,83,72,30.25,30.16,29.96,10,6,2,9,3,12,0.11,5,Rain,64
2012-12-5,57,44,31,51,34,17,93,71,48,30.28,30.10,29.94,10,9,5,24,11,33,T,4,Rain,306
2012-12-6,41,33,24,22,19,17,75,58,41,30.38,30.32,30.28,10,10,10,17,3,21,0.00,0,,359
2012-12-7,40,32,24,38,33,20,100,89,78,30.27,30.13,30.01,10,5,1,6,2,7,0.24,7,Rain,65
2012-12-8,48,44,39,46,42,37,100,93,86,30.02,29.95,29.89,5,2,0,8,3,12,0.06,8,Fog-Rain,226
2012-12-9,46,42,38,45,39,36,100,91,82,30.26,30.12,30.01,10,4,0,13,6,16,0.35,7,Fog-Rain,38
2012-12-10,50,45,40,49,46,39,100,95,89,29.98,29.70,29.56,9,1,0,15,2,23,0.09,8,Fog-Rain,360
2012-12-11,49,39,29,41,33,24,100,75,49,30.21,29.94,29.66,10,10,10,16,5,22,0.03,5,Rain,305
2012-12-12,42,35,27,29,26,24,92,76,59,30.45,30.37,30.22,10,10,9,10,3,14,0.00,0,,295
2012-12-13,46,35,23,28,24,21,100,71,41,30.48,30.42,30.33,10,9,5,7,0,8,0.00,0,,330
2012-12-14,48,35,21,28,24,18,96,69,42,30.33,30.26,30.19,10,8,5,14,3,17,0.00,0,,240
2012-12-15,47,36,24,34,29,23,92,73,53,30.34,30.26,30.19,10,9,6,9,2,12,0.00,1,,71
2012-12-16,49,45,41,43,40,34,100,87,73,30.18,30.02,29.90,10,6,2,13,8,16,0.07,8,Rain,70
2012-12-17,42,41,39,41,40,38,100,95,89,29.91,29.79,29.61,9,2,1,13,8,15,0.31,8,Rain,55
2012-12-18,52,46,40,46,40,30,100,83,66,29.70,29.56,29.48,10,6,0,23,10,35,0.16,7,Fog-Rain,275
2012-12-19,49,43,36,30,27,25,70,58,45,30.17,29.92,29.72,10,10,10,18,9,26,0.00,1,,295
2012-12-20,44,35,26,41,29,24,92,74,55,30.21,30.06,29.66,10,9,5,23,7,30,0.38,3,Rain,117
2012-12-21,56,45,34,54,40,27,93,76,59,29.58,29.28,29.15,10,6,2,25,15,35,1.44,8,Rain-Snow,220
2012-12-22,40,37,34,30,24,20,89,67,44,29.90,29.62,29.36,10,10,6,29,16,40,T,8,Snow,276
2012-12-23,41,34,26,24,21,18,69,54,38,29.99,29.94,29.89,10,10,10,21,10,28,0.00,3,,253
2012-12-24,39,31,22,31,25,18,92,71,50,30.10,30.01,29.92,10,7,1,10,5,14,0.13,4,Snow,92
2012-12-25,39,34,28,32,29,22,96,81,66,30.27,30.08,29.90,10,6,0,15,6,21,0.01,7,Fog-Rain,305
2012-12-26,33,28,22,30,25,18,92,81,69,30.29,29.90,29.47,10,5,0,31,13,39,0.59,6,Fog-Rain-Snow,58
2012-12-27,36,34,31,32,27,20,89,74,59,29.93,29.60,29.39,10,9,2,28,14,41,0.04,8,Rain-Snow,325
2012-12-28,37,30,22,23,22,19,81,70,59,30.11,30.06,29.94,10,10,10,18,7,24,0.00,3,,316
2012-12-29,32,28,23,28,26,22,100,86,72,30.06,29.73,29.55,10,5,0,22,6,31,0.24,7,Fog-Snow,32
2012-12-30,35,31,27,22,17,12,63,53,43,30.23,30.01,29.71,10,10,10,26,14,37,0.00,5,,300
2012-12-31,37,31,25,26,20,17,69,63,56,30.23,30.10,29.92,10,10,10,18,9,24,0.00,3,,248